Flag for Germany Weather past 2 weeks in Bergheim, North Rhine-Westphalia, Germany

Now
52 °F

Cool.


Feels Like: 52 °F
Forecast: 69 / 89 °F
Wind: 2 mph from Southeast

Location: Noervenich

Current Time: Aug 29, 2015 at 6:12:34 AM

Latest Report: Aug 29, 2015 at 4:20 AM


Visibility: N/A

Pressure: 30.18 "Hg

Humidity: 100%

Dew point: 52 °F

Location of BergheimLocation

Historic Weather in Bergheim — Graph

°F

Bergheim temperature yesterday

Maximum temperature yesterday: 68 °F (at 3:20 PM)
Minimum temperature yesterday: 54 °F (at 6:20 AM)
Average temperature yesterday: 61 °F

Past Weeks' High & Low Weather Summary

 TemperatureHumidityPressure
High82 °F (Aug 26, 5:20 PM)100% (Aug 15, 9:20 PM)30.24 "Hg (Aug 15, 9:20 PM)
Low48 °F (Aug 19, 6:20 AM)30% (Aug 23, 3:20 PM)29.53 "Hg (Aug 24, 2:20 PM)
Average64 °F75%29.94 "Hg
* Reported Aug 14 4:20 AM — Aug 29 4:20 AM, Bergheim, Weather by CustomWeather, © 2015

Note: Actual official high and low records may vary slightly from our data, if they occured in-between our weather recording intervals... More about our weather records

Advertising

Bergheim weather history for previous 24 hours

 ConditionsComfort  
Time TempWeatherWind HumidityBarometerVisibility
4:20 AM
Sat, Aug 29
52 °FCool.2 mph100%30.18 "HgN/A
3:20 AM52 °FCool.1 mph94%30.18 "HgN/A
2:20 AM54 °FCool.1 mph94%30.18 "HgN/A
1:20 AM55 °FCool.1 mph94%30.18 "HgN/A
12:20 AM55 °FCool.1 mph94%30.18 "HgN/A
11:20 PM
Fri, Aug 28
57 °FPassing clouds.3 mph94%30.18 "HgN/A
10:20 PM57 °FPassing clouds.No wind94%30.15 "HgN/A
9:20 PM59 °FPassing clouds.No wind88%30.15 "HgN/A
8:20 PM64 °FPassing clouds.1 mph78%30.12 "HgN/A
7:20 PM68 °FPartly sunny.2 mph60%30.12 "HgN/A
6:20 PM68 °FPartly sunny.No wind60%30.09 "HgN/A
5:20 PM68 °FPartly sunny.2 mph60%30.09 "HgN/A
4:20 PM68 °FPartly sunny.3 mph60%30.09 "HgN/A
3:20 PM68 °FPassing clouds.2 mph56%30.09 "HgN/A
2:20 PM66 °FScattered clouds.3 mph64%30.09 "HgN/A
1:20 PM66 °FPartly sunny.3 mph64%30.07 "HgN/A
1:03 PM66 °FPartly sunny.2 mph64%30.07 "HgN/A
12:20 PM64 °FBroken clouds.2 mph68%30.07 "HgN/A
11:20 AM63 °FPartly sunny.1 mph68%30.07 "HgN/A
10:20 AM63 °FPassing clouds.2 mph73%30.04 "HgN/A
9:20 AM59 °FPassing clouds.3 mph82%30.04 "HgN/A
8:20 AM57 °FPassing clouds.1 mph94%30.01 "HgN/A
7:20 AM54 °FFog.1 mph100%30.01 "Hg4 mi
6:20 AM54 °FFog.No wind100%29.98 "Hg4 mi
Weather by CustomWeather, © 2015

See weather overviewHow to use our weather pages